Location: Ravensburg
(48.5621°N, 13.4088°E)
Time: 12:19:17
(UTC+01:00)

N. Korean satellite - Visible Passes

Search period start: 25 November 2017 00:00
Search period end: 05 December 2017 00:00
Orbit: 460 x 514 km, 97.2° (Epoch: 25 November)

Date Brightness Start Highest point End Pass type
(mag) Time Alt. Az. Time Alt. Az. Time Alt. Az.
25 Nov 7.9 06:41:17 10° NNE 06:44:56 48° E 06:48:35 10° S visible
25 Nov 7.2 17:21:22 10° SE 17:24:33 32° ENE 17:27:50 10° N visible
25 Nov 9.3 18:55:27 10° SW 18:58:10 20° W 19:00:55 10° NW visible
26 Nov 9.1 06:18:06 10° NE 06:21:21 26° E 06:24:33 10° SSE visible
26 Nov 8.0 16:58:39 10° ESE 17:01:14 19° ENE 17:03:51 10° NNE visible
26 Nov 8.1 18:31:12 10° SSW 18:34:31 36° W 18:37:55 10° NNW visible
27 Nov 9.9 05:55:21 10° NE 05:57:39 15° E 05:59:56 10° SE visible
27 Nov 6.8 18:07:23 10° S 18:10:56 71° W 18:14:36 10° NNW visible
28 Nov 6.5 17:43:55 10° SSE 17:47:27 60° ENE 17:51:04 10° N visible
28 Nov 10.0 19:20:05 10° WSW 19:21:23 12° W 19:22:41 10° WNW visible
29 Nov 7.9 06:40:46 10° NNE 06:44:26 48° E 06:48:05 10° S visible
29 Nov 7.3 17:20:48 10° SE 17:24:01 32° ENE 17:27:20 10° N visible
29 Nov 9.2 18:54:52 10° SW 18:57:37 21° W 19:00:26 10° NW visible
30 Nov 9.1 06:17:35 10° NE 06:20:49 26° E 06:24:02 10° SSE visible
30 Nov 8.0 16:58:04 10° ESE 17:00:41 19° ENE 17:03:21 10° NNE visible
30 Nov 8.1 18:30:36 10° SSW 18:33:58 37° W 18:37:24 10° NNW visible
01 Dec 9.9 05:54:49 10° NE 05:57:07 15° E 05:59:24 10° SE visible
01 Dec 6.8 18:06:47 10° S 18:10:22 72° WSW 18:14:04 10° NNW visible
02 Dec 6.6 17:43:18 10° SSE 17:46:52 60° ENE 17:50:31 10° N visible
02 Dec 10.0 19:19:23 10° WSW 19:20:48 12° W 19:22:13 10° WNW visible
03 Dec 7.9 06:40:12 10° NNE 06:43:52 47° E 06:47:30 10° S visible
03 Dec 7.3 17:20:09 10° SE 17:23:26 32° ENE 17:26:46 10° N visible
03 Dec 9.2 18:54:13 10° SW 18:57:02 21° W 18:59:54 10° NW visible
04 Dec 9.1 06:17:00 10° NE 06:20:14 26° E 06:23:25 10° SSE visible
04 Dec 8.0 16:57:25 10° ESE 17:00:04 19° ENE 17:02:46 10° NNE visible
04 Dec 8.1 18:29:57 10° SSW 18:33:20 37° W 18:36:50 10° NNW visible
